Date String (YYYY-MM-DD hh:mm:ss) UTC,Instrument flags,Ambient pressure (hPa),Sample flow (lpm),Bypass flow (lpm),Sample temperature (°C),Ambient temperature (°C),ASC tube jacket temperature (°C),LED temperature (°C),Box temperature (°C),Sample RH (%),Span deviation,Mass concentration (μg/m³),Mass concentration (μg/m³),Mass concentration (μg/m³)
DateTimeUTC,F1_M11,P_M11,Q1_M11,Q2_M11,T1_M11,T2_M11,T3_M11,T4_M11,T5_M11,U1_M11,ZSPAN_M11,X0_M11,X2_M11,X1_M11
2023-02-18 17:00:00,,0820.6,5.00,0.00,22.2,20.8,00.0,31.1,24.0,04.6,0000.0,0002.25,0001.17,0000.71
2023-02-18 17:01:00,,0820.6,4.97,0.00,22.2,20.8,00.0,31.1,24.0,04.1,0000.0,0002.35,0001.13,0000.71
2023-02-18 17:02:00,,0820.6,5.01,0.00,22.2,20.8,00.0,31.1,24.0,04.4,0000.0,0002.98,0001.12,0000.71
2023-02-18 17:03:00,,0820.6,4.99,0.00,22.2,20.7,00.0,31.1,24.0,04.2,0000.0,0002.97,0001.10,0000.71
2023-02-18 17:04:00,,0820.6,4.99,0.00,22.2,20.7,00.0,31.1,24.0,04.2,0000.0,0002.93,0001.09,0000.71
2023-02-18 17:05:00,,0820.6,5.01,0.00,22.2,20.7,00.0,31.1,24.0,05.1,0000.0,0002.75,0001.07,0000.71
2023-02-18 17:06:00,,0820.6,4.99,0.00,22.2,20.7,00.0,31.1,24.0,05.0,0000.0,0002.80,0001.08,0000.71
2023-02-18 17:07:00,,0820.5,5.01,0.00,22.2,20.7,00.0,31.1,23.9,04.3,0000.0,0002.77,0001.05,0000.71
2023-02-18 17:08:00,,0820.5,5.01,0.00,22.2,20.6,00.0,31.1,23.9,04.5,0000.0,0002.76,0001.01,0000.70
2023-02-18 17:09:00,,0820.5,5.00,0.00,22.2,20.6,00.0,31.0,23.9,04.6,0000.0,0002.76,0001.00,0000.69
2023-02-18 17:10:00,,0820.5,5.01,0.00,22.1,20.6,00.0,31.0,23.9,04.1,0000.0,0002.82,0001.01,0000.69
2023-02-18 17:11:00,,0820.5,4.99,0.00,22.1,20.5,00.0,31.0,23.9,04.1,0000.0,0002.84,0001.02,0000.69
2023-02-18 17:12:00,,0820.5,5.00,0.00,22.1,20.5,00.0,31.0,23.9,04.2,0000.0,0002.87,0001.02,0000.69
2023-02-18 17:13:00,,0820.6,5.00,0.00,22.1,20.5,00.0,31.0,23.9,04.5,0000.0,0002.08,0001.05,0000.69
2023-02-18 17:14:00,,0820.6,5.01,0.00,22.1,20.4,00.0,31.0,23.8,04.2,0000.0,0002.11,0001.06,0000.69
2023-02-18 17:15:00,,0820.5,4.99,0.00,22.1,20.4,00.0,31.0,23.8,04.6,0000.0,0002.57,0001.05,0000.68
2023-02-18 17:16:00,,0820.6,5.00,0.00,22.0,20.4,00.0,31.0,23.7,04.2,0000.0,0002.71,0001.08,0000.68
2023-02-18 17:17:00,,0820.6,4.98,0.00,22.0,20.4,00.0,31.0,23.7,04.6,0000.0,0002.85,0001.07,0000.68
2023-02-18 17:18:00,,0820.6,4.99,0.00,22.0,20.4,00.0,31.0,23.7,05.1,0000.0,0003.03,0001.10,0000.67
2023-02-18 17:19:00,,0820.6,5.00,0.00,22.0,20.3,00.0,30.9,23.8,04.4,0000.0,0002.94,0001.13,0000.68
2023-02-18 17:20:00,,0820.5,5.01,0.00,22.0,20.4,00.0,30.9,23.7,04.4,0000.0,0002.94,0001.15,0000.69
2023-02-18 17:21:00,,0820.5,5.03,0.00,22.0,20.4,00.0,30.9,23.7,04.3,0000.0,0002.94,0001.16,0000.69
2023-02-18 17:22:00,,0820.5,4.95,0.00,22.0,21.6,00.0,30.9,24.0,04.5,0000.0,0003.01,0001.16,0000.69
2023-02-18 17:23:00,,0820.5,5.05,0.00,22.2,22.8,00.0,30.9,24.3,04.5,0000.0,0003.74,0001.19,0000.68
2023-02-18 17:24:00,,0820.4,5.00,0.00,22.3,22.8,00.0,30.9,24.3,04.4,0000.0,0003.68,0001.15,0000.67
2023-02-18 17:25:00,,0820.5,5.02,0.00,22.3,22.3,00.0,31.0,24.3,04.2,0000.0,0003.63,0001.13,0000.67
2023-02-18 17:26:00,,0820.5,4.99,0.00,22.3,21.9,00.0,31.0,24.2,04.4,0000.0,0003.12,0001.13,0000.67
2023-02-18 17:27:00,,0820.5,5.02,0.00,22.3,21.6,00.0,31.1,24.2,04.5,0000.0,0003.02,0001.12,0000.67
2023-02-18 17:28:00,,0820.4,4.99,0.00,22.3,21.4,00.0,31.1,24.2,05.4,0000.0,0002.84,0001.12,0000.66
2023-02-18 17:29:00,,0820.5,5.00,0.00,22.3,21.3,00.0,31.1,24.1,05.2,0000.0,0002.69,0001.11,0000.67
2023-02-18 17:30:00,,0820.5,5.00,0.00,22.3,21.1,00.0,31.1,24.1,05.3,0000.0,0002.76,0001.11,0000.66
2023-02-18 17:31:00,,0820.3,5.03,0.00,22.3,21.1,00.0,31.1,24.1,05.0,0000.0,0002.84,0001.11,0000.66
2023-02-18 17:32:00,,0820.4,4.99,0.00,22.3,21.0,00.0,31.1,24.1,05.2,0000.0,0002.92,0001.10,0000.66
2023-02-18 17:33:00,,0820.3,4.99,0.00,22.3,20.9,00.0,31.1,24.1,04.6,0000.0,0002.73,0001.08,0000.67
2023-02-18 17:34:00,,0820.3,5.00,0.00,22.3,20.9,00.0,31.1,24.1,05.0,0000.0,0001.99,0001.06,0000.67
2023-02-18 17:35:00,,0820.2,4.99,0.00,22.3,20.8,00.0,31.1,24.0,04.4,0000.0,0002.83,0001.08,0000.68
2023-02-18 17:36:00,,0820.2,4.98,0.00,22.3,20.7,00.0,31.1,24.0,04.2,0000.0,0003.23,0001.11,0000.69
2023-02-18 17:37:00,,0820.2,5.01,0.00,22.3,20.7,00.0,31.1,24.0,04.9,0000.0,0003.81,0001.15,0000.69
2023-02-18 17:38:00,,0820.2,5.01,0.00,22.2,20.7,00.0,31.1,24.0,04.8,0000.0,0004.37,0001.17,0000.70
2023-02-18 17:39:00,,0820.2,4.98,0.00,22.2,20.6,00.0,31.1,24.0,04.6,0000.0,0004.36,0001.16,0000.70
2023-02-18 17:40:00,,0820.1,4.99,0.00,22.2,20.6,00.0,31.1,24.0,04.5,0000.0,0004.32,0001.14,0000.71
2023-02-18 17:41:00,,0820.2,5.00,0.00,22.2,20.5,00.0,31.1,23.9,04.6,0000.0,0004.38,0001.12,0000.71
2023-02-18 17:42:00,,0820.2,5.00,0.00,22.2,20.5,00.0,31.1,23.9,05.2,0000.0,0004.34,0001.12,0000.71
2023-02-18 17:43:00,,0820.2,4.99,0.00,22.2,20.5,00.0,31.1,23.9,05.0,0000.0,0004.29,0001.13,0000.71
2023-02-18 17:44:00,,0820.1,5.05,0.00,22.1,20.5,00.0,31.1,23.8,04.2,0000.0,0004.29,0001.13,0000.71
2023-02-18 17:45:00,,0820.1,4.98,0.00,22.1,20.4,00.0,31.1,23.8,04.7,0000.0,0004.28,0001.13,0000.71
2023-02-18 17:46:00,,0820.0,4.97,0.00,22.1,20.4,00.0,31.1,23.8,04.8,0000.0,0003.38,0001.12,0000.70
2023-02-18 17:47:00,,0820.1,4.98,0.00,22.1,20.4,00.0,31.0,23.8,05.2,0000.0,0002.95,0001.06,0000.70
2023-02-18 17:48:00,,0820.0,5.04,0.00,22.1,20.4,00.0,31.0,23.8,04.8,0000.0,0002.40,0001.02,0000.71
2023-02-18 17:49:00,,0820.0,4.99,0.00,22.1,20.4,00.0,31.0,23.8,04.2,0000.0,0002.79,0001.01,0000.71
2023-02-18 17:50:00,,0820.0,5.01,0.00,22.1,20.4,00.0,31.0,23.8,04.3,0000.0,0003.12,0000.99,0000.70
2023-02-18 17:51:00,,0819.9,4.96,0.00,22.0,20.4,00.0,31.0,23.8,04.2,0000.0,0003.12,0001.00,0000.70
2023-02-18 17:52:00,,0820.0,4.98,0.00,22.0,20.5,00.0,31.0,23.8,04.6,0000.0,0003.00,0001.01,0000.71
2023-02-18 17:53:00,,0820.0,5.01,0.00,22.0,20.5,00.0,31.0,23.7,05.2,0000.0,0002.93,0001.02,0000.71
2023-02-18 17:54:00,,0819.9,4.99,0.00,22.0,20.4,00.0,31.0,23.7,05.1,0000.0,0002.93,0001.00,0000.70
2023-02-18 17:55:00,,0819.9,5.00,0.00,22.0,20.4,00.0,31.0,23.7,04.9,0000.0,0003.19,0001.04,0000.70
2023-02-18 17:56:00,,0819.9,5.05,0.00,22.0,20.4,00.0,30.9,23.7,04.4,0000.0,0003.34,0001.07,0000.70
2023-02-18 17:57:00,,0819.9,4.99,0.00,22.0,20.4,00.0,30.9,23.8,04.8,0000.0,0003.45,0001.10,0000.71
2023-02-18 17:58:00,,0819.9,5.01,0.00,22.0,20.3,00.0,30.9,23.7,04.8,0000.0,0003.52,0001.12,0000.72
2023-02-18 17:59:00,,0819.9,4.98,0.00,22.0,20.3,00.0,30.9,23.7,04.7,0000.0,0003.60,0001.17,0000.72
